Flag for Poland Weather past 2 weeks in Włocławek, Poland

Now
48 °F

Drizzle. Overcast.


Feels Like: 44 °F
Forecast: 38 / 55 °F
Wind: 7 mph from Northwest

Location: Plock

Current Time: Apr 28, 2015 at 10:27:27 PM

Latest Report: Apr 28, 2015 at 9:00 PM


Visibility: 6 mi

Pressure: 29.80 "Hg

Humidity: 93%

Dew point: 46 °F

Location of WłocławekLocation

Historic Weather in Włocławek — Graph

°F

Włocławek temperature yesterday

Maximum temperature yesterday: 73 °F (at 4:00 PM)
Minimum temperature yesterday: 46 °F (at 5:00 AM)
Average temperature yesterday: 60 °F

Past Weeks' High & Low Weather Summary

 TemperatureHumidityPressure
High73 °F (Apr 27, 4:00 PM)98% (Apr 27, 12:00 AM)30.23 "Hg (Apr 27, 12:00 AM)
Low32 °F (Apr 22, 5:00 AM)32% (Apr 23, 2:00 PM)29.58 "Hg (Apr 28, 5:00 AM)
Average50 °F65%29.94 "Hg
* Reported Apr 13 9:00 PM — Apr 28 9:00 PM, Włocławek, Weather by CustomWeather, © 2015

Note: Actual official high and low records may vary slightly from our data, if they occured in-between our weather recording intervals... More about our weather records

Advertising

Włocławek weather history for previous 24 hours

 ConditionsComfort  
Time TempWeatherWind HumidityBarometerVisibility
9:00 PM
Tue, Apr 28
48 °FDrizzle. Overcast.7 mph93%29.80 "Hg6 mi
8:00 PM48 °FFog.6 mph95%29.76 "Hg3 mi
7:00 PM50 °FCool.5 mph90%29.74 "Hg9 mi
6:00 PM52 °FCool.3 mph85%29.74 "Hg10 mi
5:00 PM53 °FCool.5 mph84%29.72 "Hg9 mi
4:00 PM57 °FCool.5 mph78%29.70 "Hg11 mi
3:00 PM58 °FCool.3 mph78%29.69 "Hg11 mi
2:00 PM59 °FFog.5 mph78%29.68 "Hg6 mi
1:00 PM61 °FFog.5 mph78%29.67 "Hg6 mi
12:00 PM62 °FCool.5 mph76%29.66 "Hg6 mi
11:00 AM66 °FMild.2 mph68%29.65 "Hg9 mi
10:00 AM63 °FMild.2 mph74%29.63 "Hg11 mi
9:00 AM60 °FCool.2 mph76%29.62 "Hg10 mi
8:00 AM58 °FCool.1 mph82%29.61 "Hg7 mi
7:00 AM56 °FCool.2 mph78%29.59 "Hg8 mi
6:00 AM55 °FCool.2 mph80%29.58 "Hg10 mi
5:00 AM54 °FCool.3 mph84%29.58 "Hg9 mi
4:00 AM54 °FCool.3 mph87%29.58 "Hg8 mi
3:00 AM55 °FCool.1 mph88%29.59 "Hg7 mi
2:00 AM56 °FCool.1 mph89%29.59 "Hg6 mi
1:00 AM61 °FCool.3 mph76%29.59 "Hg13 mi
12:00 AM59 °FCool.1 mph84%29.59 "Hg10 mi
11:00 PM
Mon, Apr 27
62 °FLight rain. Overcast.5 mph70%29.60 "Hg11 mi
10:00 PM62 °FCool.3 mph67%29.58 "Hg17 mi
Weather by CustomWeather, © 2015

See weather overviewHow to use our weather pages